Regional Weather Roundup
Issued by NWS

Home | Current Version | Previous Version | Graphics & Text | Print | Product List | Glossary On
Versions: 1 2 3 4 5 6 7 8 9 10 11 12 13 14 15 16 17 18 19 20 21 22 23 24 25 26 27
000
ASUS43 KDMX 171707
RWRIA

WEATHER ROUNDUP FOR IOWA
NATIONAL WEATHER SERVICE DES MOINES IA
1200 PM CDT THU APR 17 2014

NOTE: "FAIR" INDICATES FEW OR NO CLOUDS BELOW 12,000 FEET WITH NO
SIGNIFICANT WEATHER AND/OR OBSTRUCTIONS TO VISIBILITY.

* - THESE STATIONS ARE NOT NWS STATIONS...THUS NOT UNDER NWS
QUALITY CONTROL.  THEY ALSO DO NOT REPORT WEATHER SUCH
AS PRECIPITATION OR FOG.

IAZ001>003-012>014-020>022-031>034-043>046-171800-
   NORTHWEST IOWA

CITY           SKY/WX    TMP DP  RH WIND       PRES   REMARKS
CARROLL *      SUNNY     43  27  52 NW13      30.31S
CHEROKEE *     SUNNY     41  28  60 N9G16     30.31F
DENISON *      SUNNY     41  28  60 N9G17     30.30F
LE MARS *      SUNNY     39  27  60 N12       30.32F WCI  32
ORANGE CITY *    N/A     39  27  60 N8        30.31F WCI  34
SHELDON *      MOSUNNY   36  28  75 N12G17    30.30S WCI  27
SIOUX CITY     SUNNY     43  25  49 N8        30.33S
SPENCER        PTSUNNY   37  27  67 N16       30.30S WCI  28
STORM LAKE *   SUNNY     39  27  60 N10G18    30.30S WCI  32
$$

IAZ055>058-069>071-079>083-090>094-171800-
   SOUTHWEST IOWA

CITY           SKY/WX    TMP DP  RH WIND       PRES   REMARKS
ATLANTIC *     SUNNY     41  28  60 N10       30.31F
AUDUBON *      SUNNY     43  27  52 N7        30.32S
CLARINDA *     MOSUNNY   41  28  60 NW8G15    30.33F
COUNCIL BLFS * SUNNY     39  28  65 VRB7      30.32F WCI  34
CRESTON *      MOSUNNY   39  30  70 N10G16    30.30F WCI  32
HARLAN  *      SUNNY     41  28  60 NW8G14    30.35F
LAMONI         PTSUNNY   42  29  59 NW13G22   30.28F
RED OAK *      MOSUNNY   41  28  60 NW9       30.33F
SHENANDOAH *   SUNNY     41  27  56 N9G17     30.34F
$$

IAZ047>049-059>061-072>074-084-171800-
   CENTRAL IOWA

CITY           SKY/WX    TMP DP  RH WIND       PRES   REMARKS
AMES           CLOUDY    38  29  70 NW12      30.31R WCI  30
ANKENY *       CLOUDY    37  28  70 NW6G15    30.31S WCI  33
CHARITON *     PTSUNNY   41  32  70 N10       30.29F
DES MOINES     PTSUNNY   42  28  57 NW13      30.31S
GRINNELL*      CLOUDY    37  32  81 NW14      30.29S WCI  29
KNOXVILLE *    CLOUDY    41  30  65 NW9       30.29S
MARSHALLTOWN   CLOUDY    37  30  75 NW15      30.28R WCI  28
NEWTON *       CLOUDY    37  30  75 NW12G17   30.30F WCI  30
PELLA *        CLOUDY    41  30  65 NW10      30.30F
PERRY *          N/A     43  27  52 NW9       30.31F
$$

IAZ004>006-015-016-023>025-035-036-171800-
   NORTH CENTRAL IOWA

CITY           SKY/WX    TMP DP  RH WIND       PRES   REMARKS
ALGONA *       CLOUDY    34  28  80 NW13      30.29F WCI  25
CLARION *      CLOUDY    34  28  80 NW15      30.29R WCI  24
ESTHERVILLE    PTSUNNY   33  29  85 N16       30.29R WCI  23
FORT DODGE *   MOSUNNY   39  27  60 NW7       30.31R WCI  34
MASON CITY     CLOUDY    33  28  81 NW20      30.27S WCI  21
FOREST CITY *  CLOUDY    32  30  93 NW13G18   30.26F WCI  22
IOWA FALLS *   CLOUDY    36  30  80 NW12      30.30R WCI  27
$$

IAZ007>011-017>019-026>030-037>042-050>054-066-171800-
   NORTHEAST IOWA

CITY           SKY/WX    TMP DP  RH WIND       PRES   REMARKS
CEDAR RAPIDS   CLOUDY    42  31  64 W14       30.25R
CHARLES CITY * CLOUDY    37  32  81 NW15      30.25R WCI  28
CLINTON *      CLOUDY    48  36  61 W12G20    30.24F
DECORAH *      CLOUDY    37  34  87 VRB6G14   30.21R WCI  33
DUBUQUE        PTSUNNY   46  35  65 NW12      30.20S
MONTICELLO *   PTSUNNY   45  36  70 W15G23    30.22R
OELWEIN *      CLOUDY   N/A N/A N/A NW12G18   30.24R
WATERLOO       CLOUDY    43  32  65 NW13      30.25R
$$

IAZ064-065-067-068-078-171800-
   EAST CENTRAL IOWA

CITY           SKY/WX    TMP DP  RH WIND       PRES   REMARKS
DAVENPORT      PTSUNNY   47  34  60 W13       30.24R
IOWA CITY      CLOUDY    42  33  70 W13       30.28R
MT. PLEASANT * CLOUDY    43  32  65 NW8       30.28R
MUSCATINE *    CLOUDY    46  34  61 W10G18    30.27S
QUAD CITIES    PTSUNNY   47  34  60 W13       30.24R
$$

IAZ062-063-075>077-085>089-095>099-171800-
   SOUTHEAST IOWA

CITY           SKY/WX    TMP DP  RH WIND       PRES   REMARKS
BURLINGTON     CLOUDY    44  34  67 NW9       30.27R
FAIRFIELD *    CLOUDY    43  32  65 NW14G22   30.28S
FORT MADISON * CLOUDY    45  36  70 W8        30.29R
KEOKUK *       MOSUNNY   46  34  61 NW6       30.27S
OSKALOOSA *    CLOUDY    41  32  70 NW10G16   30.29S
CENTERVILLE *  SUNNY     43  32  65 NW13      30.29S
OTTUMWA        CLOUDY    41  31  67 NW15      30.28S
WASHINGTON *   PTSUNNY   45  34  65 NW14      30.28S
$$

ABBREVIATIONS USED IN REMARKS
   TC - TEMPERATURES IN CELSIUS
  WCI - WIND CHILL INDEX
   HX - HEAT INDEX
  VSB - VISIBILITY
$$




USA.gov is the U.S. government's official web portal to all federal, state and local government web resources and services.